SKYNET 5A

Last updated on Mon Oct 14 2024 00:02:38 GMT+0000 (Coordinated Universal Time)

1 30794U 07007B 24287.49664779 -.00000270 00000+0 00000+0 0 9990 2 30794 3.7323 81.0732 0003875 135.2091 80.2806 1.00273496 64565
UTC large
Height (km)
Speed (km/s)
/
Latitude / Longitude
Inclination (degrees)
Orbital Period (minutes)
Azimuth
Elevation
Range (km)
Doppler Factor

Next 0 passes for location: London (51.5072 / 0.1276)

Sorry there are no passes over London.